Regional Weather Roundup
Issued by NWS

Home | Current Version | Previous Version | Text Only | Print | Product List | Glossary On
Versions: 1 2 3 4 5 6 7 8 9 10 11 12 13 14 15 16 17 18 19 20 21 22 23 24 25 26 27 28 29 30 31 32 33 34 35 36 37 38 39 40 41 42 43 44 45 46 47 48 49 50
000
ASUS44 KFWD 182315
RWRTX
NORTH TEXAS HOURLY WEATHER ROUNDUP
NATIONAL WEATHER SERVICE FORT WORTH TX
600 PM CDT THU SEP 18 2014

NOTE: "FAIR" INDICATES FEW OR NO CLOUDS BELOW 12,000 FEET WITH NO
SIGNIFICANT WEATHER AND/OR OBSTRUCTIONS TO VISIBILITY.

TXZ118-119-190000-
DALLAS/FORT WORTH METROPLEX

CITY           SKY/WX    TMP DP  RH WIND       PRES   REMARKS
DFW AIRPORT    CLOUDY    85  69  58 E9        29.85R
DALLAS LOVE    CLOUDY    85  69  58 E9        29.84S
FTW MEACHAM    CLOUDY    85  71  63 NE9       29.84S HX  90
DAL-EXECUTIVE  CLOUDY    87  69  54 E10       29.84S HX  91
FTW-ALLIANCE   CLOUDY    83  70  64 E7        29.85R
FTW-NAS-JRB    CLOUDY    88  69  53 NE8       29.89R HX  92
FTW-SPINKS     MOSUNNY   86  66  51 E5        29.86R
ARLINGTON      CLOUDY    87  68  52 E12       29.85R HX  90
GRAND PRAIRIE  MOSUNNY   86  66  51 MISG      29.86R
ADDISON        PTSUNNY   84  68  58 E7        29.87R
MESQUITE       SUNNY     88  66  48 E7        29.85S HX  90
LANCASTER      CLOUDY    85  67  55 E7        29.85S
$$

TXZ091>094-102>105-117-120-121-131>134-190000-
NORTH CENTRAL TEXAS

CITY           SKY/WX    TMP DP  RH WIND       PRES   REMARKS
SHRMAN/DENISON PTSUNNY   83  69  61 E3        29.88S
GAINESVILLE    PTSUNNY   82  68  63 CALM      29.90S
BOWIE          CLOUDY    79  71  74 E5        29.89R
BRIDGEPORT     CLOUDY    81  68  65 E3        29.88S
DECATUR        CLOUDY    80  68  67 NE7       29.89R
DENTON         CLOUDY    82  70  66 E3        29.86S
MCKINNEY       CLOUDY    85  68  56 E6        29.86R
GREENVILLE     CLOUDY    86  68  54 SE8       29.86R
ROCKWALL       CLOUDY    83  70  63 SE7       29.85R
TERRELL        CLOUDY    88  66  48 SE10      29.86R HX  90
WAXAHACHIE     CLOUDY    85  64  47 E10       29.85F
CLEBURNE       CLOUDY    86  70  58 E12       29.86F HX  90
GRANBURY       CLOUDY    83  72  67 N5        29.86S
$$

TXZ083>090-098>101-113>116-127>130-139>142-154-155-190000-
WESTERN NORTH TEXAS

CITY           SKY/WX    TMP DP  RH WIND       PRES   REMARKS
WICHITA FALLS  CLOUDY    79  70  74 SE5       29.88S
WF-KICKAPOO    CLOUDY    80  68  67 E3        29.89F
VERNON         CLOUDY    82  68  63 CALM      29.89F
ABILENE        CLOUDY    71  69  93 E8        29.91F
ABILENE-DYESS  CLOUDY    70  64  81 E5        29.91S
BRECKENRIDGE   CLOUDY    74  73  96 MISG      29.90S FOG
GRAHAM         CLOUDY    80  65  60 CALM      29.87F
MINERAL WELLS  CLOUDY    81  67  62 S5        29.86S
STEPHENVILLE   CLOUDY    82  69  64 NE3       29.90S
COMANCHE       CLOUDY    80  72  75 NE6       29.90R
BROWNWOOD      HVY RAIN  75  73  94 E10       29.90S VSB 1/4
COLEMAN        TSTM      74  72  92 N15       29.93R
BRADY          PTSUNNY   73  72  94 NE14      29.89R
$$

TXZ143>147-156>162-174-175-190000-
CENTRAL TEXAS

CITY           SKY/WX    TMP DP  RH WIND       PRES   REMARKS
WACO           CLOUDY    79  73  82 SE15      29.86R
WACO-TSTC      MOSUNNY   79  73  83 SE8G17    29.86R
WACO-MCGREGOR  CLOUDY    79  70  73 SE9       29.87S
HILLSBORO      PTSUNNY   78  70  77 SE20G28   29.87R
CORSICANA      LGT RAIN  76  71  85 SE12      29.88R
MEXIA          CLOUDY    72  70  93 SE8       29.86F
HEARNE         CLOUDY    76  74  95 NE8       29.86S
CAMERON        LGT RAIN  75  73  96 E3        29.86R
TEMPLE         CLOUDY    75  70  83 SE6       29.87S
KILLEEN        TSTM      75  73  94 E7        29.89S
KILLEEN-SKYLRK CLOUDY    73  70  88 SE6       29.88S
FORT HOOD      CLOUDY    76  74  93 E3        29.88S
GATESVILLE     CLOUDY    77  73  88 S6        29.89S
HAMILTON       CLOUDY    78  75  90 SE5       29.89F
LAMPASAS       LGT RAIN  73  72  95 CALM      29.89S
$$

TXZ095>097-106>112-122>126-135>138-148>153-164>167-190000-
EAST TEXAS

CITY           SKY/WX    TMP DP  RH WIND       PRES   REMARKS
PARIS          PTSUNNY   82  66  57 E8        29.88R
SULPHUR SPRNGS PTSUNNY   84  69  61 SE9       29.89R
MOUNT PLEASANT PTSUNNY   83  71  66 E3        29.87S
GILMER         PTSUNNY   79  70  73 S12       29.89S
MINEOLA        PTSUNNY   82  73  74 S10G16    29.88R
TYLER          PTSUNNY   78  68  71 S8        29.87F
LONGVIEW       CLOUDY    79  71  76 S6        29.88R
MARSHALL       PTSUNNY   86  74  67 SW6       29.90S HX  94
ATHENS         PTSUNNY   75  64  69 S8        29.87F
PALESTINE      CLOUDY    72  68  86 SE6       29.90S
JACKSONVILLE   PTSUNNY   74  69  85 SE6       29.92S
HENDERSON      PTSUNNY   77  67  70 S9        29.89F
NACOGDOCHES    PTSUNNY   72  68  88 SE5       29.90S
LUFKIN         LGT RAIN  73  69  87 NE7       29.89R
$$

SUPPLEMENTAL OBSERVATIONS (CENTRAL)

CITY           SKY/WX    TMP DP  RH WIND       PRES   REMARKS
LAKE TEXOMA      N/A     81  66  61 E2          N/A
CADDO GRASSLND   N/A     82  70  65 E2          N/A
ATHENS           N/A     79  66  65 S10         N/A
PALESTINE        N/A     73  68  83 SE3         N/A
LAKE LIMESTONE   N/A     73  68  83 E7          N/A
MCGREGOR         N/A     77  70  78 SE6         N/A
TEMPLE           N/A     73  70  88 E5          N/A
$$

SUPPLEMENTAL OBSERVATIONS (WEST)

CITY           SKY/WX    TMP DP  RH WIND       PRES   REMARKS
MILLERS CREEK    N/A     73  68  83 NW2         N/A
POSSUM KINGDOM   N/A     75  68  78 S3          N/A
LBJ GRASSLAND    N/A     81  70  69 NE3         N/A
GRANBURY         N/A     82  72  69 N6          N/A
COMANCHE         N/A     79  70  73 NE7         N/A
HAMBY            N/A     70  66  88 E5          N/A
IVIE RESERVOIR   N/A     73  70  88 NE10        N/A
COLORADO BEND    N/A     72  68  88 SE8         N/A
$$

SUPPLEMENTAL OBSERVATIONS (EAST)

CITY           SKY/WX    TMP DP  RH WIND       PRES   REMARKS
TEXARKANA        N/A     82  73  74 CALM        N/A
LINDEN           N/A     82  70  65 E2          N/A
CADDO LAKE       N/A     82  72  69 S2          N/A
LUFKIN           N/A     72  68  88 MISG        N/A
N SABINE NF      N/A     79  70  73 MISG        N/A
$$

SUPPLEMENTAL OBSERVATIONS ARE A COLLECTION OF AUTOMATED INSTRUMENTS
THAT ARE MAINTAINED BY A VARIETY OF FEDERAL AND STATE AGENCIES.
CERTAIN ELEMENTS...SUCH AS HUMIDITY VALUES AND SUSTAINED WIND
SPEEDS...MAY BE APPROXIMATED.



USA.gov is the U.S. government's official web portal to all federal, state and local government web resources and services.